Wind_Speed
47 48 47 46 46 47 46 45 44 43 43 44 43 42 40 40 40 39 37 37 37 36 36 36 35 34 34 34 33 34 35 35 35 35 35 35 35 35 35 35 36 36 35 34
49 49 45 46 47 47 47 46 45 45 44 44 43 42 40 40 39 38 37 37 37 36 36 35 35 34 34 34 34 33 33 34 34 34 34 34 35 35 35 36 35 35 36 35
48 47 47 47 47 47 48 47 45 44 44 44 44 42 39 38 38 38 38 37 37 36 35 35 35 34 34 34 34 34 33 34 34 34 34 35 34 34 34 34 35 35 35 36
47 47 48 48 47 47 47 46 46 45 45 45 44 45 40 38 38 37 36 36 36 35 35 35 35 35 34 34 34 34 34 34 34 34 35 34 34 33 33 34 34 34 34 36
45 46 47 48 47 47 47 47 47 47 47 47 45 46 42 39 37 35 35 35 35 35 35 36 35 35 34 34 34 35 35 34 34 34 34 34 34 34 33 33 34 35 35 35
43 44 46 46 47 48 48 48 48 48 48 49 46 46 45 40 37 35 35 35 34 35 35 35 35 35 35 34 34 35 36 36 34 33 33 34 34 34 34 34 34 34 35 35
41 42 44 44 46 47 48 47 47 48 49 50 46 47 45 40 38 36 35 35 35 35 35 36 36 36 34 33 33 34 35 36 35 33 33 34 34 34 34 34 34 35 36 36
39 40 41 43 44 44 45 46 48 49 49 49 47 47 44 41 39 37 36 35 35 35 35 36 36 36 35 34 34 34 35 36 35 34 33 34 34 35 35 34 35 35 37 38
37 38 38 40 41 42 42 44 44 46 48 48 48 47 44 42 40 38 37 36 36 35 36 36 36 36 35 35 35 35 34 35 36 35 35 34 34 35 35 35 34 34 36 38
38 38 38 38 39 40 41 40 41 44 46 47 48 46 44 41 40 39 38 37 36 36 37 36 35 35 35 35 35 36 35 35 36 36 35 35 35 35 35 36 36 36 36 38
36 37 37 38 38 37 39 40 41 42 45 46 47 46 43 41 39 39 39 38 37 37 37 36 36 35 35 35 35 35 36 36 36 36 35 35 35 36 36 36 37 37 38 39
34 36 36 37 37 37 37 39 39 41 43 45 46 45 43 41 40 38 38 38 37 37 37 37 37 36 36 36 36 37 36 36 36 36 36 36 35 36 36 37 38 38 39 39
32 33 34 35 37 37 38 37 39 40 41 41 43 43 41 41 40 38 38 37 38 38 38 37 36 36 36 37 37 38 38 38 38 38 38 38 37 36 37 37 38 39 40 41
30 31 32 33 34 35 36 36 37 39 40 40 40 40 39 39 39 38 38 38 38 38 39 38 37 37 38 38 38 38 39 39 39 39 39 38 38 38 38 39 39 39 40 41
29 29 31 32 33 35 35 35 36 37 38 39 38 38 37 38 38 38 37 37 37 38 38 39 39 39 39 39 39 39 40 41 41 40 40 39 39 39 39 39 39 40 41 42
27 28 30 31 31 33 35 35 35 36 36 37 37 36 36 37 38 38 37 36 37 38 38 39 39 40 40 40 40 40 40 41 42 41 41 40 40 39 40 40 40 41 42 42
25 27 29 30 30 32 33 33 34 35 36 36 35 33 34 35 36 35 36 36 36 38 38 39 40 40 41 41 41 40 41 41 42 42 41 41 42 42 41 41 41 42 43 44
24 25 26 27 29 31 31 31 32 33 33 34 33 33 34 34 34 34 34 35 36 38 39 40 40 40 41 42 42 42 42 42 42 42 42 42 43 43 44 43 44 44 44 44
21 22 23 24 26 29 28 28 30 31 31 33 33 32 33 33 32 32 33 34 35 37 38 39 40 40 41 42 42 42 42 42 42 42 43 44 44 44 45 45 44 45 45 45
18 18 20 21 23 25 25 26 28 29 30 30 31 31 31 32 31 30 32 33 34 36 37 38 39 40 40 41 42 42 42 42 43 42 43 43 43 44 44 44 44 45 46 46
18 18 18 19 20 21 21 21 24 27 27 28 29 29 30 31 31 30 30 31 33 34 36 38 39 40 40 41 42 42 42 42 42 43 44 44 44 44 44 44 44 45 45 45
17 18 18 19 19 18 20 20 21 23 24 26 27 28 29 29 29 30 30 31 32 33 34 35 37 38 40 41 41 41 41 41 42 42 43 43 44 44 44 44 44 45 45 45
15 16 17 18 18 18 19 20 20 21 22 23 25 26 27 27 28 29 30 30 30 31 32 33 34 36 37 38 39 41 41 41 41 41 42 42 42 43 42 43 43 44 44 45
13 14 16 17 17 17 19 20 20 20 21 22 22 23 24 24 25 26 27 27 28 28 29 30 31 32 34 35 37 39 40 41 41 41 40 40 40 41 41 41 41 42 42 43
13 15 15 17 17 17 18 19 20 21 22 23 23 23 24 24 25 26 26 27 27 27 27 28 29 29 31 33 35 36 38 39 39 39 39 39 39 39 39 39 40 40 41 41
12 13 14 15 16 17 18 19 20 21 22 22 23 24 24 25 25 25 25 26 26 26 27 27 27 28 29 30 32 34 35 36 37 37 37 37 38 38 39 39 39 40 40 40
Wind_Direction
253 252 252 253 254 254 254 254 254 254 254 254 254 252 250 249 249 249 251 252 251 250 249 249 248 247 246 246 245 245 244 243 242 244 244 243 242 242 241 238 235 235 236 237
252 251 251 251 251 252 252 253 253 253 254 254 253 251 249 248 249 249 249 250 250 249 248 248 248 247 246 244 245 244 243 244 242 243 244 243 242 241 238 235 234 235 236 237
252 250 249 249 249 250 250 251 252 253 253 253 252 249 247 247 248 248 248 249 249 248 248 247 246 245 244 243 244 241 241 241 241 242 243 243 242 241 239 237 236 237 238 238
251 248 248 247 247 248 249 249 250 251 251 251 251 250 245 246 247 248 249 249 248 248 247 245 244 243 244 244 243 241 240 240 242 242 243 242 243 242 240 237 238 239 239 238
251 249 247 247 246 247 247 247 248 249 250 250 249 251 246 244 245 246 247 248 246 246 245 243 242 242 243 244 244 241 240 239 241 243 243 243 244 243 243 241 239 239 239 237
251 249 247 247 246 246 247 247 247 248 249 249 248 250 247 244 243 243 245 246 245 245 245 242 242 243 244 245 245 241 239 239 241 241 241 242 243 243 244 242 240 239 238 238
250 248 247 247 245 244 244 244 246 247 247 248 247 249 248 246 243 243 244 245 245 245 244 242 241 243 244 244 245 243 239 239 240 241 241 242 242 242 242 241 240 240 240 241
251 247 245 245 244 243 244 244 244 246 247 248 248 249 248 247 245 243 243 244 244 244 244 243 243 243 243 243 244 242 240 239 239 240 239 239 240 241 241 242 242 242 241 240
250 248 245 244 241 241 241 242 243 246 247 248 247 247 247 246 245 243 243 243 243 243 244 244 243 242 243 244 244 243 241 241 240 239 240 240 240 241 241 242 242 244 243 241
251 248 245 244 242 240 240 239 240 241 243 245 246 246 246 245 245 244 243 243 243 243 243 244 244 244 244 244 243 242 241 241 240 239 240 240 240 241 241 242 244 246 245 244
251 248 245 243 240 239 239 238 239 242 244 244 245 245 245 246 246 246 244 243 243 243 243 243 243 244 243 243 241 241 240 240 240 240 240 240 239 240 242 243 245 245 246 246
250 248 245 242 239 238 239 239 238 241 242 244 245 245 244 245 245 245 245 243 243 242 241 241 242 243 243 241 240 240 239 240 241 240 240 241 242 243 243 244 245 245 244 245
249 248 244 241 239 237 237 236 236 238 241 243 244 244 244 245 245 245 244 243 242 241 240 241 241 241 241 240 239 239 239 240 239 240 241 243 244 244 244 245 245 245 245 245
249 248 243 239 238 237 236 236 236 237 238 239 241 242 242 243 243 243 243 242 241 240 239 238 238 239 239 239 239 240 240 239 240 240 241 243 244 245 245 246 247 246 245 245
251 248 243 239 238 236 236 235 235 236 238 240 239 239 238 240 241 241 240 240 239 239 239 238 237 238 238 238 238 239 238 239 241 241 242 243 244 245 247 248 249 248 247 247
250 248 243 241 239 237 236 235 235 236 237 239 240 238 238 240 241 241 239 239 238 238 238 238 237 238 238 238 239 239 239 240 241 241 242 243 244 247 248 249 249 249 250 251
251 248 245 242 240 238 236 233 235 236 237 239 240 238 238 240 242 242 241 240 238 238 238 238 238 238 238 239 240 239 239 241 241 242 242 243 246 248 249 249 249 250 250 251
250 248 247 245 239 238 236 235 235 237 237 238 239 238 238 238 239 242 242 241 238 237 238 239 240 239 239 239 239 239 239 241 242 243 244 246 247 248 249 249 250 250 250 252
247 245 246 246 243 240 236 236 235 237 237 237 239 239 239 238 240 241 241 241 239 237 238 238 239 240 240 240 239 240 240 242 243 244 246 248 249 249 248 250 251 251 252 253
243 242 244 244 244 241 239 238 237 237 238 237 238 239 240 240 240 240 241 241 241 239 238 239 239 239 240 240 239 241 241 243 244 245 246 248 249 250 250 251 253 254 254 255
245 243 243 241 243 242 240 240 239 237 235 235 236 238 238 237 239 241 241 242 242 242 241 240 240 241 241 241 241 242 243 245 245 246 247 249 251 252 253 254 254 254 256 257
243 242 241 240 242 242 240 240 241 239 235 234 236 238 238 239 240 241 241 241 242 243 243 243 243 243 243 242 242 243 245 246 247 248 248 250 252 253 254 255 255 256 257 259
244 243 240 241 244 242 241 242 242 241 240 238 237 239 240 242 242 244 243 242 242 243 245 245 245 245 245 245 245 245 247 248 249 250 251 252 253 254 254 255 256 257 258 258
239 240 240 240 241 243 245 245 244 245 245 243 241 241 242 242 241 242 242 243 244 245 247 247 247 246 247 247 247 247 248 249 250 251 252 253 253 253 254 254 255 256 257 258
236 237 239 239 239 240 244 245 245 247 248 246 245 244 245 245 244 245 246 248 249 248 249 249 247 247 248 248 248 248 249 250 250 251 252 252 253 254 254 254 255 256 257 260
236 241 242 242 241 244 246 247 246 246 247 247 247 246 246 246 245 245 248 249 250 250 249 251 252 251 251 251 250 250 250 250 250 250 251 252 253 254 255 255 257 258 260 261
Height
5642 5645 5648 5654 5656 5659 5661 5664 5667 5671 5671 5673 5675 5679 5683 5685 5687 5690 5693 5695 5698 5701 5703 5705 5707 5710 5712 5714 5717 5720 5722 5725 5729 5732 5734 5737 5740 5743 5745 5748 5751 5755 5759 5763
5628 5632 5639 5641 5643 5645 5648 5651 5656 5659 5660 5662 5664 5668 5672 5675 5678 5682 5684 5687 5689 5692 5694 5697 5699 5702 5704 5707 5710 5711 5715 5718 5721 5724 5727 5729 5732 5734 5737 5740 5743 5747 5751 5755
5615 5622 5625 5626 5629 5633 5636 5641 5645 5647 5649 5650 5653 5657 5663 5667 5670 5673 5676 5678 5681 5683 5686 5689 5691 5694 5697 5700 5703 5705 5707 5710 5713 5716 5719 5721 5724 5727 5730 5733 5737 5740 5744 5748
5601 5608 5610 5613 5617 5621 5625 5630 5633 5634 5636 5639 5643 5645 5655 5658 5661 5665 5668 5670 5673 5675 5678 5681 5684 5687 5690 5693 5695 5697 5700 5703 5706 5709 5712 5714 5717 5720 5723 5726 5730 5733 5736 5740
5590 5594 5597 5601 5607 5610 5614 5618 5620 5623 5624 5627 5632 5635 5644 5649 5654 5658 5661 5662 5665 5667 5670 5673 5677 5680 5682 5685 5687 5690 5692 5695 5698 5702 5705 5707 5711 5714 5716 5719 5723 5726 5730 5734
5578 5581 5584 5590 5595 5598 5602 5606 5608 5610 5612 5615 5624 5626 5632 5641 5646 5650 5652 5654 5656 5659 5662 5665 5669 5672 5675 5677 5679 5682 5685 5688 5692 5695 5698 5701 5704 5707 5710 5713 5717 5720 5724 5727
5566 5569 5573 5577 5582 5586 5590 5594 5596 5598 5600 5606 5614 5615 5623 5632 5637 5641 5643 5646 5648 5651 5654 5657 5660 5663 5667 5669 5672 5674 5678 5681 5685 5688 5691 5694 5697 5700 5703 5707 5711 5714 5718 5721
5554 5559 5562 5566 5570 5575 5579 5583 5587 5589 5592 5598 5602 5605 5615 5621 5626 5630 5634 5637 5639 5642 5646 5649 5652 5656 5659 5662 5664 5667 5671 5674 5677 5680 5684 5687 5690 5694 5697 5700 5704 5707 5711 5715
5543 5548 5552 5555 5559 5564 5568 5572 5577 5580 5583 5587 5590 5597 5605 5610 5616 5620 5624 5627 5631 5634 5637 5641 5644 5648 5651 5654 5657 5660 5663 5666 5669 5673 5676 5679 5683 5686 5690 5693 5697 5701 5705 5708
5532 5536 5542 5545 5548 5553 5558 5562 5566 5568 5572 5575 5581 5588 5596 5602 5606 5611 5615 5618 5622 5626 5629 5633 5636 5640 5643 5646 5649 5653 5656 5659 5662 5665 5669 5672 5676 5679 5682 5686 5690 5693 5697 5701
5523 5526 5531 5535 5539 5544 5548 5552 5555 5559 5563 5567 5572 5581 5587 5593 5597 5601 5606 5609 5613 5617 5621 5624 5628 5631 5635 5638 5641 5645 5648 5651 5654 5658 5661 5665 5668 5672 5675 5678 5682 5685 5689 5692
5513 5516 5520 5525 5530 5534 5538 5543 5547 5551 5554 5558 5563 5573 5578 5583 5587 5591 5596 5600 5604 5608 5612 5616 5619 5623 5626 5630 5633 5637 5640 5644 5647 5651 5654 5657 5660 5664 5667 5670 5674 5677 5680 5683
5505 5507 5511 5516 5522 5525 5528 5533 5537 5541 5545 5549 5554 5564 5569 5573 5577 5582 5586 5590 5594 5598 5603 5607 5610 5614 5618 5621 5625 5628 5632 5635 5639 5643 5646 5649 5653 5656 5659 5662 5665 5667 5670 5673
5496 5499 5503 5508 5511 5514 5519 5524 5528 5531 5535 5540 5546 5554 5560 5563 5567 5572 5576 5580 5584 5589 5593 5598 5601 5605 5609 5613 5616 5620 5623 5627 5631 5635 5638 5641 5645 5647 5650 5653 5655 5657 5660 5663
5488 5491 5495 5498 5502 5505 5510 5515 5519 5523 5528 5533 5539 5545 5551 5554 5558 5562 5566 5570 5575 5579 5584 5588 5592 5596 5599 5603 5607 5611 5614 5618 5622 5626 5629 5633 5636 5638 5641 5643 5645 5648 5650 5653
5482 5484 5487 5491 5495 5497 5502 5507 5511 5515 5520 5525 5530 5536 5542 5545 5548 5552 5557 5561 5565 5570 5574 5578 5583 5586 5590 5594 5597 5601 5605 5608 5612 5616 5620 5623 5626 5629 5631 5633 5635 5638 5640 5643
5476 5478 5481 5484 5488 5490 5495 5500 5504 5508 5513 5518 5523 5529 5532 5536 5539 5543 5547 5551 5556 5560 5564 5569 5573 5577 5581 5584 5588 5592 5595 5599 5602 5606 5610 5613 5616 5619 5621 5623 5625 5628 5630 5632
5470 5472 5474 5478 5482 5485 5491 5494 5498 5502 5506 5510 5515 5520 5524 5527 5531 5535 5539 5542 5546 5550 5555 5559 5562 5567 5571 5575 5578 5582 5585 5589 5592 5596 5600 5603 5606 5608 5610 5613 5615 5617 5619 5621
5465 5467 5470 5472 5475 5478 5484 5488 5491 5495 5499 5503 5508 5512 5515 5519 5523 5527 5530 5533 5537 5541 5545 5549 5553 5557 5561 5564 5568 5572 5576 5579 5582 5586 5589 5592 5594 5597 5599 5602 5604 5606 5608 5610
5461 5463 5466 5468 5470 5474 5479 5482 5485 5489 5492 5496 5500 5504 5508 5512 5516 5520 5522 5525 5528 5532 5535 5539 5543 5547 5550 5554 5558 5562 5565 5569 5572 5575 5578 5580 5582 5585 5588 5590 5592 5594 5596 5598
5457 5459 5461 5464 5466 5469 5473 5476 5480 5485 5487 5490 5493 5497 5500 5504 5508 5511 5514 5517 5520 5523 5526 5529 5533 5537 5540 5544 5548 5551 5555 5558 5561 5564 5566 5569 5571 5574 5576 5578 5580 5582 5584 5586
5453 5455 5457 5460 5462 5468 5469 5472 5475 5477 5480 5483 5487 5490 5493 5497 5500 5503 5506 5509 5512 5514 5517 5520 5523 5527 5530 5534 5538 5541 5544 5547 5550 5553 5555 5558 5560 5562 5564 5567 5569 5571 5573 5575
5450 5452 5454 5457 5461 5462 5464 5466 5469 5472 5474 5477 5480 5483 5487 5490 5493 5496 5499 5501 5504 5506 5509 5511 5514 5517 5521 5524 5527 5531 5534 5536 5539 5542 5544 5546 5549 5551 5553 5555 5557 5559 5561 5563
5447 5449 5451 5453 5456 5458 5460 5462 5464 5467 5469 5472 5475 5478 5480 5483 5486 5489 5491 5494 5496 5499 5501 5503 5506 5508 5511 5514 5517 5520 5523 5526 5529 5531 5533 5536 5538 5540 5542 5544 5546 5548 5550 5551
5444 5446 5448 5450 5452 5454 5456 5458 5460 5462 5464 5467 5469 5472 5474 5477 5480 5482 5484 5487 5489 5491 5493 5495 5498 5500 5502 5504 5507 5509 5512 5515 5518 5521 5523 5525 5527 5530 5532 5534 5535 5537 5539 5540
5441 5443 5445 5447 5449 5450 5452 5453 5455 5457 5459 5461 5464 5466 5468 5471 5473 5475 5478 5480 5482 5484 5486 5488 5490 5492 5494 5496 5498 5500 5502 5505 5508 5510 5513 5515 5517 5519 5521 5523 5525 5526 5528 5529